• In Latvia
  • List of Countries
  • For 7 days
  • Water Temperature
  • Satellite Maps
  • Weather Map
  • Weather Widgets
  • user-avatar
    Login

    Hourly Weather Prichtovskiy

    Today, 18 July, Wednesday

    Time Temperature Precipitation Wind Pressure Humidity
    00:00 +19°C° 0 mm 3 mps 732 mmHg 75%
    01:00 +19°C° 0 mm 2 mps 732 mmHg 75%
    02:00 +18°C° 0 mm 2 mps 732 mmHg 74%
    03:00 +18°C° 0 mm 2 mps 732 mmHg 74%
    04:00 +18°C° 0 mm 2 mps 732 mmHg 73%
    05:00 +18°C° 0 mm 2 mps 731 mmHg 73%
    06:00 +19°C° 0 mm 2 mps 731 mmHg 73%
    07:00 +21°C° 0 mm 2 mps 731 mmHg 66%
    08:00 +25°C° 0 mm 2 mps 731 mmHg 59%
    09:00 +27°C° 0 mm 2 mps 731 mmHg 52%
    10:00 +28°C° 0 mm 2 mps 731 mmHg 48%
    11:00 +30°C° 0 mm 2 mps 731 mmHg 45%
    12:00 +31°C° 0 mm 2 mps 731 mmHg 41%
    13:00 +31°C° 0 mm 2 mps 731 mmHg 42%
    14:00 +31°C° 0 mm 2 mps 731 mmHg 43%
    15:00 +31°C° 0 mm 2 mps 731 mmHg 43%
    16:00 +30°C° 0.1 mm 2 mps 730 mmHg 49%
    17:00 +29°C° 0.1 mm 1 mps 730 mmHg 54%
    18:00 +28°C° 0.1 mm 1 mps 730 mmHg 60%
    19:00 +26°C° 0 mm 1 mps 730 mmHg 64%
    20:00 +25°C° 0 mm 1 mps 730 mmHg 68%
    21:00 +23°C° 0 mm 1 mps 730 mmHg 73%
    22:00 +23°C° 0 mm 1 mps 730 mmHg 76%
    23:00 +22°C° 0 mm 1 mps 730 mmHg 79%

    Tomorrow, 19 July, Thursday

    Time Temperature Precipitation Wind Pressure Humidity
    00:00 +21°C° 0 mm 1 mps 730 mmHg 81%
    01:00 +21°C° 0.3 mm 1 mps 730 mmHg 82%
    02:00 +20°C° 0.3 mm 1 mps 730 mmHg 83%
    03:00 +20°C° 0.3 mm 1 mps 730 mmHg 84%
    04:00 +20°C° 0.2 mm 1 mps 730 mmHg 83%
    05:00 +20°C° 0.2 mm 1 mps 730 mmHg 82%
    06:00 +20°C° 0.2 mm 1 mps 730 mmHg 81%
    07:00 +22°C° 0.1 mm 1 mps 730 mmHg 75%
    08:00 +25°C° 0.1 mm 1 mps 730 mmHg 68%
    09:00 +27°C° 0.1 mm 1 mps 730 mmHg 61%
    10:00 +27°C° 0.5 mm 1 mps 730 mmHg 64%
    11:00 +26°C° 0.5 mm 2 mps 730 mmHg 66%
    12:00 +26°C° 0.5 mm 3 mps 730 mmHg 68%
    13:00 +27°C° 0.1 mm 2 mps 730 mmHg 64%
    14:00 +27°C° 0.1 mm 2 mps 730 mmHg 60%
    15:00 +28°C° 0.1 mm 1 mps 730 mmHg 56%
    16:00 +28°C° 0.3 mm 1 mps 730 mmHg 58%
    17:00 +28°C° 0.3 mm 2 mps 730 mmHg 59%
    18:00 +28°C° 0.3 mm 2 mps 730 mmHg 60%
    19:00 +26°C° 0.2 mm 1 mps 730 mmHg 66%
    20:00 +24°C° 0.2 mm 1 mps 731 mmHg 73%
    21:00 +22°C° 0.2 mm 1 mps 731 mmHg 79%
    22:00 +22°C° 0 mm 1 mps 730 mmHg 80%
    23:00 +21°C° 0 mm 1 mps 730 mmHg 81%

    Day after tomorrow, 20 July, Friday

    Time Temperature Precipitation Wind Pressure Humidity
    00:00 +21°C° 0 mm 1 mps 730 mmHg 82%
    01:00 +20°C° 0.1 mm 1 mps 730 mmHg 80%
    02:00 +20°C° 0.1 mm 1 mps 731 mmHg 79%
    03:00 +20°C° 0.1 mm 1 mps 731 mmHg 77%
    04:00 +20°C° 0.1 mm 1 mps 731 mmHg 76%
    05:00 +20°C° 0.1 mm 1 mps 731 mmHg 75%
    06:00 +20°C° 0.1 mm 1 mps 731 mmHg 74%
    07:00 +23°C° 0 mm 1 mps 731 mmHg 69%
    08:00 +25°C° 0 mm 1 mps 731 mmHg 63%
    09:00 +28°C° 0 mm 1 mps 731 mmHg 57%
    10:00 +29°C° 0 mm 1 mps 731 mmHg 53%
    11:00 +30°C° 0 mm 1 mps 731 mmHg 49%
    12:00 +32°C° 0 mm 1 mps 731 mmHg 46%
    13:00 +32°C° 0.4 mm 1 mps 731 mmHg 46%
    14:00 +32°C° 0.4 mm 2 mps 731 mmHg 47%
    15:00 +32°C° 0.4 mm 2 mps 731 mmHg 47%
    16:00 +31°C° 0.4 mm 2 mps 731 mmHg 52%
    17:00 +30°C° 0.4 mm 1 mps 731 mmHg 56%
    18:00 +29°C° 0.4 mm 1 mps 731 mmHg 61%
    19:00 +27°C° 0.6 mm 1 mps 731 mmHg 67%
    20:00 +25°C° 0.6 mm 1 mps 731 mmHg 73%
    21:00 +23°C° 0.6 mm 2 mps 731 mmHg 79%
    22:00 +23°C° 0.3 mm 2 mps 731 mmHg 82%
    23:00 +21°C° 0.3 mm 2 mps 731 mmHg 85%

    21 July, Saturday

    Time Temperature Precipitation Wind Pressure Humidity
    00:00 +20°C° 0.3 mm 2 mps 731 mmHg 88%
    01:00 +20°C° 0.2 mm 2 mps 731 mmHg 89%
    02:00 +19°C° 0.2 mm 2 mps 731 mmHg 90%
    03:00 +20°C° 0.2 mm 1 mps 731 mmHg 91%
    04:00 +20°C° 0 mm 1 mps 732 mmHg 90%
    05:00 +20°C° 0 mm 1 mps 732 mmHg 89%
    06:00 +20°C° 0 mm 1 mps 732 mmHg 88%
    07:00 +23°C° 0.1 mm 1 mps 732 mmHg 80%
    08:00 +25°C° 0.1 mm 1 mps 732 mmHg 71%
    09:00 +28°C° 0.1 mm 1 mps 732 mmHg 63%
    10:00 +29°C° 0.1 mm 1 mps 732 mmHg 58%
    11:00 +30°C° 0.1 mm 2 mps 732 mmHg 54%
    12:00 +31°C° 0.1 mm 2 mps 732 mmHg 49%
    13:00 +31°C° 0.3 mm 2 mps 732 mmHg 55%
    14:00 +30°C° 0.3 mm 2 mps 732 mmHg 60%
    15:00 +30°C° 0.3 mm 2 mps 732 mmHg 66%
    16:00 +29°C° 0.7 mm 2 mps 732 mmHg 68%
    17:00 +29°C° 0.7 mm 2 mps 732 mmHg 71%
    18:00 +28°C° 0.7 mm 1 mps 732 mmHg 74%
    19:00 +27°C° 0.2 mm 1 mps 732 mmHg 78%
    20:00 +25°C° 0.2 mm 1 mps 732 mmHg 82%
    21:00 +23°C° 0.2 mm 1 mps 732 mmHg 86%
    22:00 +23°C° 0.1 mm 1 mps 732 mmHg 88%
    23:00 +21°C° 0.1 mm 2 mps 732 mmHg 90%

    22 July, Sunday

    Time Temperature Precipitation Wind Pressure Humidity
    00:00 +21°C° 0.1 mm 2 mps 732 mmHg 92%
    01:00 +21°C° 0 mm 2 mps 732 mmHg 92%
    02:00 +20°C° 0 mm 2 mps 732 mmHg 93%
    03:00 +21°C° 0 mm 1 mps 732 mmHg 93%
    04:00 +21°C° 0.3 mm 1 mps 732 mmHg 93%
    05:00 +21°C° 0.3 mm 1 mps 732 mmHg 92%
    06:00 +21°C° 0.3 mm 1 mps 732 mmHg 92%
    07:00 +24°C° 0.1 mm 1 mps 732 mmHg 83%
    08:00 +26°C° 0.1 mm 1 mps 732 mmHg 74%
    09:00 +28°C° 0.1 mm 1 mps 733 mmHg 65%
    10:00 +29°C° 0.4 mm 1 mps 732 mmHg 62%
    11:00 +30°C° 0.4 mm 1 mps 732 mmHg 59%
    12:00 +31°C° 0.4 mm 1 mps 732 mmHg 56%
    13:00 +31°C° 0.9 mm 1 mps 732 mmHg 58%
    14:00 +31°C° 0.9 mm 1 mps 732 mmHg 60%
    15:00 +30°C° 0.9 mm 1 mps 731 mmHg 62%
    16:00 +30°C° 1.2 mm 1 mps 732 mmHg 65%
    17:00 +29°C° 1.2 mm 1 mps 732 mmHg 69%
    18:00 +28°C° 1.2 mm 1 mps 732 mmHg 72%
    19:00 +27°C° 0.7 mm 2 mps 732 mmHg 76%
    20:00 +25°C° 0.7 mm 2 mps 732 mmHg 80%
    21:00 +24°C° 0.7 mm 2 mps 732 mmHg 84%
    22:00 +23°C° 0 mm 2 mps 732 mmHg 86%
    23:00 +21°C° 0 mm 2 mps 732 mmHg 87%

    23 July, Monday

    Time Temperature Precipitation Wind Pressure Humidity
    00:00 +21°C° 0 mm 2 mps 732 mmHg 89%
    01:00 +21°C° 0.1 mm 2 mps 732 mmHg 90%
    02:00 +20°C° 0.1 mm 2 mps 732 mmHg 91%
    03:00 +20°C° 0.1 mm 2 mps 732 mmHg 92%
    04:00 +21°C° 0.2 mm 1 mps 732 mmHg 92%
    05:00 +21°C° 0.2 mm 1 mps 732 mmHg 92%
    06:00 +21°C° 0.2 mm 1 mps 732 mmHg 92%
    07:00 +24°C° 0 mm 1 mps 732 mmHg 83%
    08:00 +26°C° 0 mm 1 mps 732 mmHg 74%
    09:00 +28°C° 0 mm 1 mps 732 mmHg 66%
    10:00 +29°C° 0.1 mm 1 mps 732 mmHg 61%
    11:00 +30°C° 0.1 mm 1 mps 732 mmHg 56%
    12:00 +32°C° 0.1 mm 2 mps 732 mmHg 52%
    13:00 +31°C° 0.8 mm 2 mps 732 mmHg 55%
    14:00 +31°C° 0.8 mm 2 mps 731 mmHg 59%
    15:00 +30°C° 0.8 mm 1 mps 731 mmHg 62%
    16:00 +30°C° 0.8 mm 1 mps 731 mmHg 64%
    17:00 +29°C° 0.8 mm 1 mps 731 mmHg 66%
    18:00 +29°C° 0.8 mm 1 mps 731 mmHg 69%
    19:00 +27°C° 0.1 mm 1 mps 732 mmHg 72%
    20:00 +26°C° 0.1 mm 1 mps 732 mmHg 76%
    21:00 +24°C° 0.1 mm 1 mps 732 mmHg 80%
    22:00 +24°C° 0 mm 1 mps 732 mmHg 81%
    23:00 +23°C° 0 mm 2 mps 732 mmHg 81%
    Show more